Location: Most
(50.5133°N, 13.6207°E)
Time: 21:03:21
(UTC+02:00)

ISS - Pass Details

Date: 19 May 2025
Orbit: 415 x 416 km, 51.6° (Epoch: 16 June)

Event Time Altitude Azimuth Distance (km) Brightness Sun altitude
Rises 23:51:06 0° 285° (WNW) 2,361 0.5 -17.8°
Reaches altitude 10° 23:53:24 10° 272° (W) 1,494 -0.7 -17.9°
Enters shadow 23:55:29 24° 237° (WSW) 919 -2.2 -18.0°
